Location: Godiavel Galaoual
(15.2485°N, 12.6604°W)
Time: 10:28:50
(UTC+00:00)

Tiros 1 despin weight - Visible Passes

Search period start: 15 June 2021 00:00
Search period end: 25 June 2021 00:00
Orbit: 593 x 641 km, 48.2° (Epoch: 14 June)

Date Brightness Start Highest point End Pass type
(mag) Time Alt. Az. Time Alt. Az. Time Alt. Az.
15 Jun ? 05:52:59 10° SSW 05:57:22 66° SE 06:01:44 10° NE visible
16 Jun ? 04:30:54 12° SSE 04:32:22 14° SE 04:34:38 10° E visible
17 Jun ? 04:46:56 27° S 04:48:31 36° SE 04:52:34 10° ENE visible
18 Jun ? 05:02:54 35° SW 05:04:43 82° NW 05:09:08 10° NE visible
19 Jun ? 03:41:43 15° E 03:41:43 15° E 03:42:59 10° E visible
19 Jun ? 05:18:47 20° W 05:21:00 31° NW 05:24:56 10° NNE visible
20 Jun ? 03:57:32 33° ENE 03:57:32 33° ENE 04:00:10 10° NE visible
20 Jun ? 05:35:14 10° WNW 05:37:28 14° NW 05:39:41 10° N visible
21 Jun ? 04:13:17 41° N 04:13:17 41° N 04:16:25 10° NNE visible
22 Jun ? 04:28:57 22° NW 04:28:57 22° NW 04:31:54 10° N visible
23 Jun ? 03:07:30 11° NE 03:07:30 11° NE 03:07:37 10° NE visible
24 Jun ? 03:23:02 13° NNE 03:23:02 13° NNE 03:23:34 10° NNE visible
